Regional Weather Roundup
Issued by NWS Sioux Falls, SD

Home | Current Version | Previous Version | Text Only | Print | Product List | Glossary On
Versions: 1 2 3 4 5 6 7 8 9 10 11 12 13 14 15 16 17 18 19 20 21 22 23 24 25 26 27 28 29 30 31 32 33 34 35 36 37 38 39 40 41 42 43 44 45 46 47 48 49 50
000
ASUS43 KFSD 211110
RWRFSD

WEATHER ROUNDUP FOR SE SOUTH DAKOTA/SW MINNESOTA/NW IOWA
NATIONAL WEATHER SERVICE SIOUX FALLS SD
500 AM CST SUN DEC 21 2014

NOTE: "FAIR" INDICATES FEW OR NO CLOUDS BELOW 12,000 FEET WITH NO
SIGNIFICANT WEATHER AND OR OBSTRUCTIONS TO VISIBILITY.


SDZ038>040-050-052>070-211200-
SOUTHEAST SOUTH DAKOTA

CITY           SKY/WX    TMP DP  RH WIND       PRES   REMARKS
CHAMBERLAIN    CLOUDY    25  24  96 E7        29.74F WCI  17
HURON          CLOUDY    31  30  96 S9        29.79F FOG     WCI  23
MADISON        FOG       28  28 100 S12       29.80S VSB 1/4 WCI  18
MITCHELL       CLOUDY    32  31  96 S9        29.82F FOG     WCI  24
SIOUX FALLS    FOG       31  31 100 S13       29.81F VSB 3/4 WCI  21
WINNER         CLOUDY    39  27  62 SW13      29.72F
YANKTON        CLOUDY    32  30  93 S9        29.83F WCI  24
$$

MNZ071-072-080-081-089-090-097-098-211200-
SOUTHWEST MINNESOTA

CITY           SKY/WX    TMP DP  RH WIND       PRES   REMARKS
FAIRMONT       CLOUDY    34  28  80 S14       29.89F VSB 1/4 WCI  24
JACKSON        FOG       32  32 100 S10G16    29.88F VSB 1   WCI  24
LUVERNE        FOG       32  32 100 S8        29.84F VSB 1/2 WCI  25
MARSHALL       CLOUDY    30  27  86 S8        29.84F WCI  23
MONTEVIDEO     CLOUDY    30  30 100 SW7       29.87F FOG     WCI  23
PIPESTONE      SNOW      30  30 100 S5        29.80F VSB 1/4 WCI  25
REDWOOD FALLS  CLOUDY    32  31  96 S15       29.86F FOG     WCI  22
TRACY          CLOUDY    32  31  96 S10G16    29.83F FOG     WCI  24
WINDOM         FOG       30  30 100 S9        29.86F VSB 1/2 WCI  22
WORTHINGTON    CLOUDY    30  28  93 S13       29.85F VSB 1/2 WCI  20
$$

IAZ001>003-012>014-020>022-031-032-NEZ013-014-SDZ071-211200-
NORTHWEST IOWA

CITY           SKY/WX    TMP DP  RH WIND       PRES   REMARKS
CHEROKEE       FOG       33  33 100 S10       29.88F VSB 3/4 WCI  25
DENISON        CLOUDY    37  37 100 S13G22    29.88F FOG
ESTHERVILLE    FOG       32  32 100 S14       29.89F VSB 1/4 WCI  22
LE MARS        CLOUDY    34  34 100 S9        29.87S FOG     WCI  26
ORANGE CITY    FOG       34  32  93 S8        29.85F VSB<1/4 WCI  27
SHELDON        FOG       32  32 100 SE9       29.84F VSB 1/4 WCI  24
SIOUX CITY     FOG       35  34  96 SE8       29.87F VSB 1/2 WCI  29
SPENCER        FOG       33  32  96 SE13      29.88F VSB 1/2 WCI  24
STORM LAKE     FOG       34  34 100 S12       29.89F VSB<1/4 WCI  25
$$

ABBREVIATIONS USED IN REMARKS
   TC - TEMPERATURE IN CELSIUS
  WCI - WIND CHILL INDEX
   HX - HEAT INDEX
  VSB - VISIBILITY



USA.gov is the U.S. government's official web portal to all federal, state and local government web resources and services.